Tracking 19562 objects as of 24-Mar-2019
HD Live streaming from Space Station
objects crossing your sky now

FLOCK 2K 30

Track FLOCK 2K 30 now!
10-day predictions
FLOCK 2K 30 is classified as:


NORAD ID: 42872
Int'l Code: 2017-042AZ
Perigee: 450.5 km
Apogee: 464.7 km
Inclination: 97.0 °
Period: 93.6 minutes
Semi major axis: 6828 km
RCS: Unknown
Launch date: July 14, 2017
Source: United States (US)
Launch site: TYURATAM MISSILE AND SPACE COMPLEX (TTMTR)
aabbcc
Your satellite tracking list
Your tracking list is empty




NASA's NSSDC Master Catalog

Two Line Element Set (TLE):
1 42872U 17042AZ  19082.90831026 +.00003809 +00000-0 +10199-3 0  9999
2 42872 096.9517 330.2075 0010419 165.3509 194.8041 15.38538791094613
Source of the keplerian elements: AFSPC